Home   Weather   Mainz   Past weeks

Flag for Germany Past Weather in Mainz, Rhineland-Palatinate, Germany — Yesterday and Last 2 Weeks

Now
75 °F

Scattered clouds.


Feels Like: 77 °F
Forecast: 60 / 80 °F
Wind: 15 mph from South

Location: Wiesbaden Airport

Current Time: Jul 20, 2017 at 4:59:57 pm

Latest Report: Jul 20, 2017 at 3:58 pm


Visibility: N/A

Pressure: 29.85 "Hg

Humidity: 71%

Dew Point: 65 °F

Location of MainzLocation

Past Weather in Mainz — Graph

°F

Mainz Temperature Yesterday

Maximum temperature yesterday: 93 °F (at 4:58 pm)
Minimum temperature yesterday: 69 °F (at 11:58 pm)
Average temperature yesterday: 79 °F

High & Low Weather Summary for the Past Weeks

 TemperatureHumidityPressure
High93 °F (Jul 19, 4:58 pm)100% (Jul 7, 5:58 am)30.27 "Hg (Jul 7, 5:58 am)
Low48 °F (Jul 13, 3:58 am)32% (Jul 5, 3:58 pm)29.76 "Hg (Jul 10, 5:38 am)
Average70 °F70%29.98 "Hg
* Reported Jul 5 3:58 pm — Jul 20 3:58 pm, Mainz. Weather by CustomWeather, © 2017

Note: Actual official high and low records may vary slightly from our data, if they occured in-between our weather recording intervals... More about our weather records

Advertising

Mainz Weather History for the Previous 24 Hours

Scroll right to see more
 ConditionsComfort  
Time TempWeatherWind HumidityBarometerVisibility
3:58 pm
Thu, Jul 20
75 °FScattered clouds.15 mph71%29.85 "HgN/A
3:18 pm75 °FBroken clouds.14 mph74%29.86 "HgN/A
1:58 pm72 °FPartly sunny.10 mph81%29.88 "HgN/A
1:38 pm70 °FMostly cloudy.10 mph83%29.88 "HgN/A
1:30 pm70 °FLight rain. Mostly cloudy.10 mph83%29.88 "HgN/A
1:16 pm70 °FMostly cloudy.14 mph83%29.88 "HgN/A
12:58 pm70 °FLight rain. Partly sunny.12 mph83%29.88 "HgN/A
12:18 pm70 °FLight rain. Broken clouds.14 mph83%29.88 "HgN/A
11:58 am71 °FLight rain. Mostly cloudy.10 mph82%29.87 "HgN/A
11:31 am73 °FScattered clouds.8 mph78%29.86 "HgN/A
11:10 am72 °FLight rain. Broken clouds.9 mph78%29.86 "HgN/A
11:08 am72 °FBroken clouds.10 mph78%29.86 "HgN/A
10:58 am72 °FBroken clouds.8 mph83%29.86 "HgN/A
10:39 am72 °FLight rain. Cloudy.7 mph83%29.86 "HgN/A
10:32 am72 °FMostly cloudy.6 mph83%29.86 "HgN/A
10:19 am72 °FLight rain. Mostly cloudy.9 mph78%29.86 "HgN/A
9:58 am72 °FBroken clouds.9 mph78%29.85 "HgN/A
8:58 am70 °FOvercast.No wind88%29.85 "HgN/A
7:58 am68 °FPartly sunny.No wind94%29.83 "HgN/A
6:58 am68 °FMostly cloudy.No wind94%29.82 "HgN/A
5:58 am66 °FBroken clouds.3 mph100%29.81 "HgN/A
4:58 am68 °FPartly cloudy.6 mph94%29.79 "HgN/A
4:29 am68 °FPassing clouds.5 mph94%29.79 "HgN/A
3:58 am69 °FRain. Mostly cloudy.3 mph86%29.82 "Hg5 mi
2:58 am70 °FPartly cloudy.No wind78%29.80 "HgN/A
1:58 am68 °FMostly cloudy.No wind88%29.81 "HgN/A
12:58 am70 °FPassing clouds.No wind78%29.81 "HgN/A
11:58 pm
Wed, Jul 19
69 °FClear.6 mph81%29.80 "HgN/A
10:58 pm71 °FPassing clouds.3 mph77%29.81 "HgN/A
9:58 pm74 °FClear.6 mph70%29.83 "HgN/A
8:58 pm77 °FSunny.3 mph65%29.81 "HgN/A
7:58 pm79 °FPassing clouds.9 mph58%29.80 "HgN/A
7:13 pm77 °FPartly sunny.13 mph61%29.82 "HgN/A
7:02 pm81 °FLight rain. Partly sunny.13 mph54%29.81 "HgN/A
6:58 pm82 °FPartly sunny.12 mph51%29.80 "HgN/A
5:58 pm90 °FPartly sunny.16 mph38%29.78 "HgN/A
4:58 pm93 °FScattered clouds.10 mph34%29.78 "HgN/A
Weather by CustomWeather, © 2017

See weather overviewHow to use our weather pages